Lexington Weather

Lexington, Massachusetts, USA

44°F
5/12/2021 4:38am 
  • Lexington Conditions: Clear
  • Temperature: 44.4°F / 6.9°CColder 0.4°F than last hour.
  • Dew Point: 33.4°FIncreased 0.9°Fsince last hour.
  • Relative Humidity: 65%Increased 3.0% since last hour.
  • Wind: Wind from NW NW 1 mph, 10-min avg: 1 mph, gust: 7 mph
  • Barometer: 29.92 in Steady
  • Visibility: 10 miles
  • Rain Today: 0.00 in
  •   

Regional Weather Roundup
for Boston / Norton, MA

        
000
ASUS41 KBOX 120305
RWRBOX

REGIONAL WEATHER ROUNDUP
NATIONAL WEATHER SERVICE BOSTON/NORTON MA
1100 PM EDT TUE MAY 11 2021

NOTE:  "FAIR" INDICATES FEW OR NO CLOUDS BELOW 12,000 FEET WITH NO 
SIGNIFICANT WEATHER AND/OR OBSTRUCTIONS TO VISIBILITY.

MAZALL-120400-
EASTERN MASSACHUSETTS
  
CITY           SKY/WX    TMP DP  RH WIND       PRES   REMARKS
BOSTON         CLEAR     54  24  31 W12       29.97S                  
BEVERLY        CLEAR     52  22  30 W9        29.95S                  
LAWRENCE       CLEAR     50  25  37 W13       29.97S                  
BEDFORD        CLEAR     49  26  41 W7        29.96F                  
BLUE HILL        N/A     48  25  40 W13G22    29.95S                  
NORWOOD        CLEAR     52  26  36 W8        29.98S                  
MARSHFIELD     CLEAR     54  27  35 VRB6G13   29.97S                  
PLYMOUTH       CLEAR     50  27  40 W6        29.97S                  
TAUNTON        CLEAR     50  28  42 VRB5      29.99R                  
NEW BEDFORD    CLEAR     51  27  39 NW3       29.99R                  
$$

MAZALL-120400-
CAPE COD AND THE ISLANDS
  
CITY           SKY/WX    TMP DP  RH WIND       PRES   REMARKS
FALMOUTH       CLEAR     48  39  71 NW8       29.99R                  
HYANNIS        MOCLDY    54  42  64 W6        29.96R                  
CHATHAM        MOCLDY    52  39  61 W3        29.97S                  
PROVINCETOWN   CLEAR     52  38  58 W13       29.97S                  
NANTUCKET      CLOUDY    52  44  74 W13       29.98S                  
MARTHAS VNYRD  MOCLDY    52  41  66 W8        29.98S                  
$$
 
MAZALL-120400-
CENTRAL AND WESTERN MASSACHUSETTS
  
CITY           SKY/WX    TMP DP  RH WIND       PRES   REMARKS
WORCESTER      CLEAR     45  26  47 W12       29.98S                  
FITCHBURG      CLEAR     48  26  42 W10       29.98F                  
ORANGE         CLEAR     47  25  42 W6        30.01S                  
SPRINGFIELD    CLEAR     47  26  43 NW13      30.01F                  
WESTFIELD      CLEAR     49  28  44 NW7       30.03R                  
NORTH ADAMS    CLEAR     46  26  45 W12       30.03S                  
PITTSFIELD     CLEAR     43  27  53 W12G26    30.02S                  
$$
 
RIZALL-120400-
RHODE ISLAND
  
CITY           SKY/WX    TMP DP  RH WIND       PRES   REMARKS
PROVIDENCE     PTCLDY    52  28  39 NW8       30.00S                  
NEWPORT        CLEAR     51  31  46 NW10G18   30.00R                  
BLOCK ISLAND   CLOUDY    52  33  48 N13G18    30.02R                  
SMITHFIELD     CLEAR     49  26  41 W10G18    30.00S                  
WESTERLY       PTCLDY    51  28  41 VRB7      30.02R                  
$$
 
CTZALL-120400-
CONNECTICUT
  
CITY           SKY/WX    TMP DP  RH WIND       PRES   REMARKS
BRADLEY INTL   PTCLDY    48  28  46 NW7       30.03S                  
HARTFORD       CLEAR     51  28  41 NW10      30.04R                  
BRIDGEPORT     MOCLDY    55  28  35 NW8       30.04R                  
DANBURY        CLEAR     52  28  39 CALM      30.06S                  
GROTON         CLEAR     52  30  43 NW12      30.02R                  
NEW HAVEN      PTCLDY    54  32  43 N8        30.04R                  
CHESTER        FAIR      50  28  43 NW9       30.03S                  
MERIDEN        CLEAR     50  31  48 NW3       30.05R                  
WILLIMANTIC    CLEAR     49  29  46 W5        30.03S                  
OXFORD         PTCLDY    44  32  62 N5        30.05R                  
$$

MEZ002-015-021-024-NHZ003-005-008-011-012-014-VTZ005-008-120400-
NORTHERN NEW ENGLAND
  
CITY           SKY/WX    TMP DP  RH WIND       PRES   REMARKS
PORTLAND ME    PTCLDY    48  33  56 W6        29.91S                  
BANGOR ME      CLOUDY    46  43  89 W5        29.84F                  
CONCORD NH     CLEAR     48  25  40 W7        29.95S                  
MANCHESTER NH  CLEAR     51  24  34 W8        29.94S                  
NASHUA NH      CLEAR     50  25  37 W12G18    29.97S                  
PORTSMOUTH NH  CLEAR     50  22  33 W9        29.94S                  
JAFFREY NH     CLEAR     46  25  43 VRB6      29.98S                  
KEENE NH       CLEAR     42  29  59 S3        30.00S                  
BURLINGTON VT  CLOUDY    48  35  60 W8        29.96F                  
MT. WASHINGTON SNOWSHWR  21  21 100 W53G61      N/A  VSB 0   WCI  -1  
$$

NYZ052-076-120400-
EASTERN NEW YORK
  
CITY           SKY/WX    TMP DP  RH WIND       PRES   REMARKS
ALBANY         PTCLDY    43  29  57 W8        30.06S                  
NEW YORK CITY  CLOUDY    57  32  38 NW12      30.07R                  
$$
 
ANZALL-120400-
MARINE OBSERVATIONS
  
STATION/POSITION TIME  TEMP    WIND        PRES    VSBY  WAVE
                       AIR SEA DIR/SP/G                  HT/PER
                 (UTC) (F)     (DEG/KT/KT) (MB)    (MI)  (FT/S)
BOSTON BUOY      0240   53 49  270/ 16/ 19 1014.2F
BUZZARDS BAY     0200          260/ 16/ 17 1016.3R
NANTUCKET SOUND  0240      53                N/A
MASS BAY-STELLWA 0204   53     280/ 16/ 17 1012.9S  1 7/8  2/ 3
ISLE OF SHOALS   0200   53     260/ 13/ 14 1013.1R
S OF BLOCK IS    0226      50                N/A           4/ 7
$$

......................KEY.........................
  SKY/WX - SKY CONDITION/PRESENT WEATHER
  TMP    - TEMPERATURE IN FAHRENHEIT
  DWPT   - DEWPOINT IN FAHRENHEIT
  RH     - RELATIVE HUMIDITY IN PERCENT
  WIND   - DIRECTION AND SPEED IN MPH
  PRES   - MEAN SEA LEVEL PRESSURE IN INCHES OF HG
  WCI    - WIND CHILL INDEX
  VSB    - VISIBILITY IN MILES
  HX     - HEAT INDEX
  TC     - TEMPERATURE IN CELSIUS
  VRB    - VARIABLE WIND DIRECTION
  N/A    - NOT AVAILABLE
  
      

Other recent Regional Weather Roundups

Wed May 12, 4:04am

Wed May 12, 3:04am

Wed May 12, 2:04am

Wed May 12, 1:04am

Wed May 12, 12:05am

Tue May 11, 10:04pm

Tue May 11, 9:05pm

Tue May 11, 8:05pm

Tue May 11, 7:04pm

Tue May 11, 6:04pm

Tue May 11, 5:04pm

Tue May 11, 4:05pm

Tue May 11, 3:04pm

Tue May 11, 2:05pm

Tue May 11, 1:04pm

Tue May 11, 12:05pm

Tue May 11, 11:05am

Tue May 11, 10:04am

Tue May 11, 9:04am

Tue May 11, 8:04am

Tue May 11, 7:05am

Tue May 11, 6:04am

Tue May 11, 5:04am

Tue May 11, 4:04am

Tue May 11, 3:04am

Tue May 11, 2:04am

Tue May 11, 1:04am

Tue May 11, 12:04am

Mon May 10, 11:04pm

Mon May 10, 10:04pm

Mon May 10, 9:05pm

Mon May 10, 8:04pm

Mon May 10, 7:05pm

Mon May 10, 6:04pm

Mon May 10, 5:04pm

Mon May 10, 4:04pm

Mon May 10, 3:04pm

Mon May 10, 2:04pm

Mon May 10, 1:04pm

Mon May 10, 12:04pm

Mon May 10, 11:05am

Mon May 10, 10:04am

Mon May 10, 9:04am

Mon May 10, 8:04am

Mon May 10, 7:04am

Mon May 10, 6:04am

Mon May 10, 5:05am

Mon May 10, 4:04am

Mon May 10, 3:04am

Mon May 10, 2:04am

Mon May 10, 1:04am

Mon May 10, 12:04am

Sun May 9, 11:04pm

Sun May 9, 10:04pm

Sun May 9, 9:04pm

Sun May 9, 8:04pm

Sun May 9, 7:05pm

Sun May 9, 6:04pm

Sun May 9, 5:04pm

Sun May 9, 4:04pm

Sun May 9, 3:04pm

Sun May 9, 2:04pm

Sun May 9, 1:05pm

Sun May 9, 12:04pm

Sun May 9, 11:05am

Sun May 9, 10:04am

Sun May 9, 9:04am

Sun May 9, 8:04am

Sun May 9, 7:04am

Sun May 9, 6:04am

Sun May 9, 5:04am

Sun May 9, 4:04am

Sun May 9, 3:04am

Sun May 9, 2:04am

Sun May 9, 1:05am

Sun May 9, 12:04am

Sat May 8, 11:05pm

Sat May 8, 10:04pm

Sat May 8, 9:05pm

Sat May 8, 8:04pm

Sat May 8, 7:04pm

Sat May 8, 6:04pm

Sat May 8, 5:05pm

Sat May 8, 4:04pm

Sat May 8, 3:05pm

Sat May 8, 2:05pm

Sat May 8, 1:05pm

Sat May 8, 12:04pm

Sat May 8, 11:05am

Sat May 8, 10:04am

Sat May 8, 9:04am

Sat May 8, 8:04am

Sat May 8, 7:04am

Sat May 8, 6:04am

Sat May 8, 5:04am

Sat May 8, 4:04am

Sat May 8, 3:04am

Sat May 8, 2:04am

Sat May 8, 1:05am

Sat May 8, 12:04am

Fri May 7, 11:04pm

Fri May 7, 10:05pm

Fri May 7, 9:04pm

Fri May 7, 8:04pm

Fri May 7, 7:05pm

Fri May 7, 6:04pm

Fri May 7, 5:05pm

Fri May 7, 4:04pm

Fri May 7, 3:04pm

Fri May 7, 2:05pm

Fri May 7, 1:04pm

Fri May 7, 12:04pm

Fri May 7, 11:05am

Fri May 7, 10:04am

Fri May 7, 9:04am

Fri May 7, 8:05am

Fri May 7, 7:04am

Fri May 7, 6:04am

Fri May 7, 5:04am

Fri May 7, 4:04am

Fri May 7, 3:04am

Fri May 7, 2:05am

Fri May 7, 1:04am

Fri May 7, 12:05am

Thu May 6, 11:04pm

Thu May 6, 10:04pm

Thu May 6, 9:05pm

Thu May 6, 8:04pm

Thu May 6, 7:04pm

Thu May 6, 6:04pm

Thu May 6, 5:05pm

Thu May 6, 4:04pm

Thu May 6, 3:04pm

Thu May 6, 2:05pm

Thu May 6, 1:04pm

Thu May 6, 12:04pm

Thu May 6, 11:04am

Thu May 6, 10:04am

Thu May 6, 9:04am

Thu May 6, 8:04am

Thu May 6, 7:04am

Thu May 6, 6:04am

Thu May 6, 5:04am

Thu May 6, 4:04am

Thu May 6, 3:04am

Thu May 6, 2:05am

Thu May 6, 1:04am

Thu May 6, 12:05am

Wed May 5, 11:04pm

Wed May 5, 10:04pm

Wed May 5, 9:05pm

Wed May 5, 8:04pm

Wed May 5, 7:05pm

Wed May 5, 6:04pm

Wed May 5, 5:04pm

Wed May 5, 4:04pm

Wed May 5, 3:04pm

Wed May 5, 2:05pm

Wed May 5, 1:05pm

Wed May 5, 12:04pm

Wed May 5, 11:05am

Wed May 5, 10:04am

Wed May 5, 9:04am

Wed May 5, 8:04am

Wed May 5, 7:04am

Wed May 5, 6:05am

Wed May 5, 5:04am

Meta data:

ID: 49f96891-d165-4608-8c39-6f0db7f55b34
Link: https://api.weather.gov/products/49f96891-d165-4608-8c39-6f0db7f55b34